Weather History for Alva, OK

Change the Weather History Date:

Sunday, November 25, 2012

  Actual Average Record
Temperature  
Mean Temperature 46 °F -  
Max Temperature 59 °F 54 °F 78 °F (1965)
Min Temperature 32 °F 32 °F 11 °F (1950)
Degree Days  
Heating Degree Days 20    
Moisture  
Dew Point 26 °F    
Average Humidity 49    
Maximum Humidity 70    
Minimum Humidity 29    
Precipitation  
Precipitation 0.00 in - - ()
Sea Level Pressure  
Sea Level Pressure 29.88 in    
Wind  
Wind Speed 8 mph (NE)    
Max Wind Speed 13 mph    
Max Gust Speed 17 mph    
Visibility 10 miles    
Events      
Averages and records for this station are not official NWS values.
T = Trace of Precipitation, MM = Missing Value Source: NWS Daily Summary

Daily Weather History Graph

Daily Weather History Graph

Search for Another Location

Airport:

Trip Planner

Search our weather history database for the weather conditions in past years. The results will help you decide how hot, cold, wet, or windy it might be!

Date:

Astronomy

Nov. 25, 2012 Rise Set
Actual Time 7:23 AM CST 5:20 PM CST
Civil Twilight 6:55 AM CST 5:48 PM CST
Nautical Twilight 6:23 AM CST 6:20 PM CST
Astronomical Twilight 5:52 AM CST 6:51 PM CST
Moon 3:35 PM CST 4:41 AM CST
Length of Visible Light 10h 52m
Length of Day
9h 56m
Waxing Gibbous, 93% of the Moon is Illuminated
Nov 25
Waxing Gibbous
Nov 28
Full
Dec 6
Last Quarter
Dec 13
New
Dec 19
First Quarter

Hourly Weather History & Observations

Time (CST) Temp. Windchill Dew Point Humidity Pressure Visibility Wind Dir Wind Speed Gust Speed Precip Events Conditions
12:10 AM 41.0 °F 35.2 °F 23.0 °F 49% 29.91 in 10.0 mi South 9.2 mph - N/A   Partly Cloudy
12:30 AM 41.0 °F 36.4 °F 23.0 °F 49% 29.91 in 10.0 mi SSW 6.9 mph - N/A   Partly Cloudy
12:50 AM 44.6 °F 40.2 °F 23.0 °F 43% 29.90 in 10.0 mi SW 8.1 mph - N/A   Scattered Clouds
1:10 AM 44.6 °F 38.4 °F 24.8 °F 46% 29.89 in 10.0 mi SSW 12.7 mph - N/A   Scattered Clouds
1:30 AM 44.6 °F 38.4 °F 24.8 °F 46% 29.88 in 10.0 mi SSW 12.7 mph - N/A   Scattered Clouds
1:50 AM 46.4 °F 40.7 °F 24.8 °F 43% 29.88 in 10.0 mi SSW 12.7 mph - N/A   Partly Cloudy
2:10 AM 42.8 °F 36.6 °F 24.8 °F 49% 29.88 in 10.0 mi SSW 11.5 mph - N/A   Partly Cloudy
2:30 AM 41.0 °F 34.7 °F 24.8 °F 53% 29.88 in 10.0 mi SSW 10.4 mph - N/A   Partly Cloudy
2:50 AM 39.2 °F 32.0 °F 24.8 °F 56% 29.88 in 10.0 mi SSW 11.5 mph - N/A   Clear
3:10 AM 39.2 °F 33.0 °F 24.8 °F 56% 29.88 in 10.0 mi SW 9.2 mph - N/A   Partly Cloudy
3:30 AM 37.4 °F 31.4 °F 23.0 °F 56% 29.87 in 10.0 mi SW 8.1 mph - N/A   Partly Cloudy
3:50 AM 35.6 °F 32.8 °F 23.0 °F 60% 29.88 in 10.0 mi West 3.5 mph - N/A   Partly Cloudy
4:10 AM 37.4 °F 31.4 °F 23.0 °F 56% 29.87 in 10.0 mi SSW 8.1 mph - N/A   Partly Cloudy
4:30 AM 35.6 °F 28.0 °F 23.0 °F 60% 29.86 in 10.0 mi SSW 10.4 mph - N/A   Clear
4:50 AM 35.6 °F 28.6 °F 23.0 °F 60% 29.86 in 10.0 mi SSW 9.2 mph - N/A   Clear
5:30 AM 35.6 °F 32.8 °F 23.0 °F 60% 29.87 in 10.0 mi SSW 3.5 mph - N/A   Clear
5:50 AM 33.8 °F 28.6 °F 23.0 °F 65% 29.87 in 10.0 mi WNW 5.8 mph - N/A   Clear
6:10 AM 32.0 °F 27.5 °F 23.0 °F 69% 29.88 in 10.0 mi West 4.6 mph - N/A   Clear
6:30 AM 37.4 °F 32.8 °F 23.0 °F 56% 29.88 in 10.0 mi NW 5.8 mph - N/A   Clear
6:50 AM 33.8 °F - 23.0 °F 65% 29.88 in 10.0 mi Calm Calm - N/A   Clear
7:10 AM 32.0 °F - 23.0 °F 69% 29.88 in 10.0 mi Calm Calm - N/A   Clear
7:30 AM 32.0 °F - 23.0 °F 69% 29.89 in 10.0 mi Calm Calm - N/A   Clear
7:50 AM 32.0 °F 27.5 °F 23.0 °F 69% 29.90 in 10.0 mi NNW 4.6 mph - N/A   Clear
8:10 AM 33.8 °F 30.8 °F 24.8 °F 70% 29.90 in 10.0 mi NW 3.5 mph - N/A   Clear
8:30 AM 37.4 °F 32.8 °F 26.6 °F 65% 29.90 in 10.0 mi NW 5.8 mph - N/A   Clear
8:50 AM 39.2 °F 33.6 °F 26.6 °F 61% 29.91 in 10.0 mi North 8.1 mph - N/A   Clear
9:10 AM 41.0 °F 38.0 °F 24.8 °F 53% 29.91 in 9.0 mi North 4.6 mph - N/A   Clear
9:30 AM 42.8 °F 38.6 °F 24.8 °F 49% 29.91 in 10.0 mi North 6.9 mph - N/A   Clear
9:50 AM 44.6 °F 40.2 °F 24.8 °F 46% 29.91 in 10.0 mi North 8.1 mph - N/A   Clear
10:10 AM 44.6 °F 40.2 °F 24.8 °F 46% 29.91 in 10.0 mi North 8.1 mph - N/A   Clear
10:30 AM 48.2 °F - 24.8 °F 40% 29.91 in 10.0 mi NNE 8.1 mph - N/A   Clear
10:50 AM 50.0 °F - 24.8 °F 37% 29.91 in 10.0 mi North 5.8 mph - N/A   Clear
11:10 AM 50.0 °F - 24.8 °F 37% 29.91 in 10.0 mi NE 8.1 mph - N/A   Clear
11:30 AM 50.0 °F - 24.8 °F 37% 29.90 in 10.0 mi NNE 8.1 mph - N/A   Clear
11:50 AM 51.8 °F - 26.6 °F 38% 29.89 in 10.0 mi NNE 6.9 mph - N/A   Clear
12:10 PM 53.6 °F - 26.6 °F 35% 29.88 in 10.0 mi NE 9.2 mph - N/A   Clear
12:30 PM 55.4 °F - 26.6 °F 33% 29.87 in 10.0 mi NE 9.2 mph - N/A   Clear
12:50 PM 55.4 °F - 26.6 °F 33% 29.87 in 10.0 mi NE 12.7 mph - N/A   Clear
1:10 PM 57.2 °F - 26.6 °F 31% 29.86 in 10.0 mi NE 11.5 mph - N/A   Clear
1:30 PM 57.2 °F - 26.6 °F 31% 29.85 in 10.0 mi NE 10.4 mph 17.3 mph N/A   Clear
1:50 PM 59.0 °F - 26.6 °F 29% 29.85 in 10.0 mi ENE 10.4 mph - N/A   Clear
2:10 PM 59.0 °F - 26.6 °F 29% 29.85 in 10.0 mi NE 10.4 mph - N/A   Clear
2:30 PM 59.0 °F - 26.6 °F 29% 29.85 in 10.0 mi East 10.4 mph - N/A   Clear
2:50 PM 59.0 °F - 26.6 °F 29% 29.85 in 10.0 mi East 9.2 mph - N/A   Clear
3:10 PM 59.0 °F - 26.6 °F 29% 29.85 in 10.0 mi ENE 9.2 mph - N/A   Clear
3:35 PM 59.0 °F - 26.6 °F 29% 29.85 in 10.0 mi East 9.2 mph - N/A   Clear
3:50 PM 59.0 °F - 26.6 °F 29% 29.85 in 10.0 mi East 9.2 mph - N/A   Clear
4:10 PM 59.0 °F - 28.4 °F 31% 29.86 in 10.0 mi East 8.1 mph - N/A   Clear
4:30 PM 57.2 °F - 28.4 °F 33% 29.86 in 10.0 mi East 9.2 mph - N/A   Clear
4:50 PM 55.4 °F - 28.4 °F 36% 29.86 in 10.0 mi East 9.2 mph - N/A   Clear
5:10 PM 53.6 °F - 30.2 °F 41% 29.86 in 10.0 mi East 5.8 mph - N/A   Clear
5:30 PM 50.0 °F - 30.2 °F 47% 29.86 in 10.0 mi East 5.8 mph - N/A   Clear
5:55 PM 50.0 °F - 28.4 °F 43% 29.86 in 10.0 mi East 5.8 mph - N/A   Clear
6:10 PM 48.2 °F - 28.4 °F 46% 29.86 in 10.0 mi ENE 5.8 mph - N/A   Clear
6:30 PM 48.2 °F - 28.4 °F 46% 29.87 in 10.0 mi ENE 8.1 mph - N/A   Clear
6:50 PM 46.4 °F 42.9 °F 28.4 °F 50% 29.87 in 10.0 mi ENE 6.9 mph - N/A   Clear
7:10 PM 46.4 °F 42.9 °F 28.4 °F 50% 29.88 in 10.0 mi ENE 6.9 mph - N/A   Clear
7:30 PM 46.4 °F 42.4 °F 28.4 °F 50% 29.88 in 10.0 mi ENE 8.1 mph - N/A   Partly Cloudy
7:50 PM 44.6 °F 40.2 °F 28.4 °F 53% 29.88 in 10.0 mi ENE 8.1 mph - N/A   Clear
8:10 PM 44.6 °F 40.2 °F 28.4 °F 53% 29.89 in 10.0 mi NE 8.1 mph - N/A   Partly Cloudy
8:30 PM 44.6 °F 40.2 °F 28.4 °F 53% 29.89 in 10.0 mi NE 8.1 mph - N/A   Clear
8:50 PM 44.6 °F 40.2 °F 28.4 °F 53% 29.89 in 10.0 mi NE 8.1 mph - N/A   Clear
9:10 PM 42.8 °F 38.0 °F 28.4 °F 57% 29.90 in 10.0 mi NNE 8.1 mph - N/A   Clear
9:30 PM 41.0 °F 35.2 °F 28.4 °F 61% 29.90 in 10.0 mi NNE 9.2 mph - N/A   Partly Cloudy
9:50 PM 41.0 °F 34.3 °F 28.4 °F 61% 29.90 in 10.0 mi NNE 11.5 mph - N/A   Partly Cloudy
10:10 PM 41.0 °F 34.7 °F 28.4 °F 61% 29.91 in 10.0 mi NNE 10.4 mph - N/A   Partly Cloudy
10:30 PM 42.8 °F 37.0 °F 28.4 °F 57% 29.91 in 10.0 mi NNE 10.4 mph - N/A   Partly Cloudy
10:50 PM 41.0 °F 34.7 °F 28.4 °F 61% 29.92 in 10.0 mi NNE 10.4 mph - N/A   Clear
11:10 PM 41.0 °F 34.3 °F 28.4 °F 61% 29.91 in 10.0 mi NNE 11.5 mph - N/A   Clear
11:30 PM 41.0 °F 34.7 °F 26.6 °F 57% 29.91 in 10.0 mi NE 10.4 mph - N/A   Partly Cloudy
11:50 PM 41.0 °F 34.7 °F 26.6 °F 57% 29.92 in 10.0 mi NNE 10.4 mph - N/A   Partly Cloudy